Location: Luxembourg
(49.6117°N, 6.1300°E)
Time: 05:12:45
(UTC+01:00)

Tiros 1 - All Passes

Search period start: 12 November 2024 00:00
Search period end: 22 November 2024 00:00
Orbit: 622 x 654 km, 48.4° (Epoch: 11 November)

Date Brightness Start Highest point End Pass type
(mag) Time Alt. Az. Time Alt. Az. Time Alt. Az.
12 Nov - 00:58:17 10° WSW 01:00:30 13° SW 01:02:42 10° SSW night (unlit)
12 Nov - 16:53:24 10° SSE 16:55:47 14° SE 16:58:12 10° ESE daylight
12 Nov - 18:32:28 10° SW 18:36:56 43° SSE 18:41:27 10° E visible
12 Nov - 20:13:58 10° W 20:18:42 77° S 20:23:28 10° E visible
12 Nov - 21:55:55 10° W 22:00:38 64° SSW 22:05:21 10° ESE visible
12 Nov - 23:38:11 10° W 23:42:09 26° SW 23:46:06 10° SSE night (unlit)
13 Nov - 17:14:35 10° SSW 17:18:23 24° SE 17:22:13 10° E daylight
13 Nov - 18:55:11 10° WSW 18:59:52 61° SSE 19:04:33 10° E visible
13 Nov - 20:37:00 10° W 20:41:45 78° S 20:46:32 10° E visible
13 Nov - 22:19:01 10° W 22:23:34 46° SSW 22:28:07 10° SE night (unlit)
14 Nov - 00:02:01 10° WSW 00:04:47 15° SW 00:07:31 10° S night (unlit)
14 Nov - 15:58:24 10° SSE 16:00:04 12° SE 16:01:45 10° ESE daylight
14 Nov - 17:36:46 10° SW 17:41:08 39° SSE 17:45:33 10° E visible
14 Nov - 19:18:07 10° WSW 19:22:51 75° S 19:27:36 10° E visible
14 Nov - 21:00:04 10° W 21:04:48 67° SSW 21:09:31 10° ESE visible
14 Nov - 22:42:14 10° W 22:46:22 30° SSW 22:50:30 10° SSE night (unlit)
15 Nov - 16:19:03 10° SSW 16:22:37 22° SE 16:26:12 10° E daylight
15 Nov - 17:59:24 10° WSW 18:04:01 57° SSE 18:08:40 10° E visible
15 Nov - 19:41:09 10° W 19:45:53 78° S 19:50:39 10° E visible
15 Nov - 21:23:08 10° W 21:27:44 50° SSW 21:32:19 10° SE visible
15 Nov - 23:05:52 10° W 23:09:02 18° SW 23:12:10 10° S night (unlit)
16 Nov - 16:41:03 10° SW 16:45:19 35° SSE 16:49:37 10° E daylight
16 Nov - 18:22:16 10° WSW 18:26:58 72° S 18:31:43 10° E visible
16 Nov - 20:04:11 10° W 20:08:55 71° S 20:13:39 10° ESE visible
16 Nov - 21:46:18 10° W 21:50:33 33° SSW 21:54:48 10° SSE visible
17 Nov - 15:23:34 10° S 15:26:49 19° SE 15:30:07 10° E daylight
17 Nov - 17:03:35 10° SW 17:08:08 52° SSE 17:12:45 10° E daylight
17 Nov - 18:45:16 10° W 18:49:59 79° S 18:54:46 10° E visible
17 Nov - 20:27:14 10° W 20:31:52 54° SSW 20:36:30 10° ESE visible
17 Nov - 22:09:46 10° W 22:13:14 20° SW 22:16:41 10° S night (unlit)
18 Nov - 15:45:21 10° SSW 15:49:29 31° SSE 15:53:39 10° E daylight
18 Nov - 17:26:24 10° WSW 17:31:05 69° SSE 17:35:48 10° E visible
18 Nov - 19:08:17 10° W 19:13:00 73° S 19:17:45 10° ESE visible
18 Nov - 20:50:20 10° W 20:54:42 37° SSW 20:59:04 10° SE visible
18 Nov - 22:34:38 10° WSW 22:35:44 11° SW 22:36:51 10° SSW night (unlit)
19 Nov - 14:28:08 10° S 14:31:01 16° SE 14:33:56 10° E daylight
19 Nov - 16:07:45 10° SW 16:12:15 48° SSE 16:16:49 10° E daylight
19 Nov - 17:49:22 10° W 17:54:04 78° S 17:58:49 10° E visible
19 Nov - 19:31:19 10° W 19:35:58 59° SSW 19:40:37 10° ESE visible
19 Nov - 21:13:41 10° W 21:17:24 23° SW 21:21:06 10° SSE visible
20 Nov - 14:49:39 10° SSW 14:53:37 28° SSE 14:57:38 10° E daylight
20 Nov - 16:30:30 10° WSW 16:35:09 66° SSE 16:39:51 10° E daylight
20 Nov - 18:12:21 10° W 18:17:04 76° S 18:21:49 10° ESE visible
20 Nov - 19:54:22 10° W 19:58:49 41° SSW 20:03:16 10° SE visible
20 Nov - 21:37:52 10° WSW 21:39:56 13° SW 21:41:59 10° SSW visible
21 Nov - 13:32:47 10° S 13:35:12 14° SE 13:37:38 10° ESE daylight
21 Nov - 15:11:56 10° SW 15:16:21 44° SSE 15:20:50 10° E daylight
21 Nov - 16:53:25 10° W 16:58:07 77° S 17:02:52 10° E daylight
21 Nov - 18:35:22 10° W 18:40:01 63° SSW 18:44:43 10° ESE visible
21 Nov - 20:17:37 10° W 20:21:32 26° SW 20:25:26 10° SSE visible
